GW0655 Weather Reports


time (UTC)temp
F
wind
direction
speed
knots
gust
knots
rain 1hr
in
rain 24hr
in
rain mn
in
humidity
%
barometer
mb
20260905024501 84 205 0.9 1.7 0.00 0.00 0.00 67 1015.2
20260905023956 84 176 1.7 1.7 0.00 0.00 0.00 67 1014.8
20260905023451 84 200 0.0 0.0 0.00 0.00 0.00 68 1015.2
20260905022950 84 243 0.9 0.9 0.00 0.00 0.00 68 1014.8
20260905022445 84 248 0.0 0.0 0.00 0.00 0.00 67 1015.2
20260905021941 84 241 0.0 0.0 0.00 0.00 0.00 67 1014.8
20260905021440 84 114 0.9 0.9 0.00 0.00 0.00 67 1014.5
20260905020936 84 142 0.0 0.9 0.00 0.00 0.00 67 1014.5
20260905020435 85 255 0.0 0.0 0.00 0.00 0.00 66 1014.5
20260905015930 85 247 0.0 0.0 0.00 0.00 0.00 66 1014.5
20260905015428 85 214 0.9 0.9 0.00 0.00 0.00 66 1014.5
20260905014927 85 238 0.0 0.0 0.00 0.00 0.00 66 1014.1
20260905014423 85 241 0.9 0.9 0.00 0.00 0.00 66 1014.5
20260905013918 86 239 0.0 0.9 0.00 0.00 0.00 66 1014.5
20260905013415 86 240 0.0 0.0 0.00 0.00 0.00 66 1014.5
20260905012910 86 203 0.9 0.9 0.00 0.00 0.00 66 1014.1
20260905012405 86 172 0.9 0.9 0.00 0.00 0.00 65 1014.1
20260905011902 86 188 0.9 0.9 0.00 0.00 0.00 65 1014.5
20260905011357 86 239 0.9 0.9 0.00 0.00 0.00 65 1014.5
20260905010853 87 237 2.6 2.6 0.00 0.00 0.00 65 1014.1
20260905010347 87 228 1.7 2.6 0.00 0.00 0.00 64 1014.1
20260905005843 87 156 1.7 1.7 0.00 0.00 0.00 64 1013.8
20260905005339 87 131 2.6 2.6 0.00 0.00 0.00 63 1013.8
20260905004834 87 106 2.6 2.6 0.00 0.00 0.00 63 1013.5
20260905004328 88 121 0.9 1.7 0.00 0.00 0.00 62 1013.8
20260905003824 88 170 0.9 1.7 0.00 0.00 0.00 62 1013.8
20260905003320 88 166 0.9 4.3 0.00 0.00 0.00 62 1013.8
20260905002815 88 80 2.6 4.3 0.00 0.00 0.00 62 1013.8
20260905002309 88 172 2.6 2.6 0.00 0.00 0.00 62 1013.8
20260905001804 88 86 1.7 2.6 0.00 0.00 0.00 62 1013.8
20260905001304 89 142 4.3 6.1 0.00 0.00 0.00 61 1013.8
20260905000759 89 125 3.5 4.3 0.00 0.00 0.00 61 1013.8
20260905000255 89 165 5.2 6.1 0.00 0.00 0.00 61 1013.8
20260904235750 89 78 4.3 4.3 0.00 0.00 0.00 60 1013.5
20260904235250 90 184 3.5 4.3 0.00 0.00 0.00 58 1013.5
20260904234745 90 250 1.7 1.7 0.00 0.00 0.00 57 1013.8
20260904234240 90 137 2.6 4.3 0.00 0.00 0.00 56 1013.5
20260904233736 91 161 2.6 5.2 0.00 0.00 0.00 55 1013.8
20260904233232 91 206 1.7 2.6 0.00 0.00 0.00 55 1013.8
20260904232728 91 165 0.9 1.7 0.00 0.00 0.00 55 1013.8
20260904232224 91 38 2.6 5.2 0.00 0.00 0.00 55 1013.5
20260904231719 91 15 1.7 2.6 0.00 0.00 0.00 55 1013.5
20260904231215 91 43 0.0 0.9 0.00 0.00 0.00 55 1013.5
20260904230709 91 106 1.7 5.2 0.00 0.00 0.00 55 1013.5
20260904230203 91 75 0.0 0.9 0.00 0.00 0.00 55 1013.8
20260904225702 91 130 3.5 5.2 0.00 0.00 0.00 56 1013.5
20260904225156 90 184 3.5 4.3 0.00 0.00 0.00 56 1013.5
20260904224650 90 151 4.3 7.0 0.00 0.00 0.00 57 1013.5
20260904224145 91 152 5.2 7.0 0.00 0.00 0.00 57 1013.8
20260904223644 91 139 4.3 7.0 0.00 0.00 0.00 57 1013.5
20260904223140 91 132 4.3 5.2 0.00 0.00 0.00 57 1013.8
20260904222636 90 223 2.6 2.6 0.00 0.00 0.00 58 1013.8
20260904222131 90 22 3.5 4.3 0.00 0.00 0.00 57 1013.8
20260904221631 91 137 3.5 6.1 0.00 0.00 0.00 56 1013.8
20260904221125 92 43 6.1 9.6 0.00 0.00 0.00 56 1013.5
20260904220620 93 86 4.3 7.0 0.00 0.00 0.00 54 1013.8
20260904220115 95 176 3.5 4.3 0.00 0.00 0.00 48 1013.5
20260904215610 96 168 2.6 2.6 0.00 0.00 0.00 47 1013.5
20260904215106 95 208 0.9 0.9 0.00 0.00 0.00 47 1013.5
20260904214601 95 166 0.9 1.7 0.00 0.00 0.00 48 1013.8
20260904214057 94 290 0.9 0.9 0.00 0.00 0.00 49 1013.8
20260904213554 95 223 1.7 1.7 0.00 0.00 0.00 48 1014.1
20260904213052 95 235 2.6 4.3 0.00 0.00 0.00 46 1014.1
20260904212551 95 195 2.6 6.1 0.00 0.00 0.00 45 1013.8
20260904212046 95 193 6.1 7.8 0.00 0.00 0.00 47 1014.1
20260904211545 95 253 3.5 5.2 0.00 0.00 0.00 48 1014.1
20260904211041 95 204 4.3 5.2 0.00 0.00 0.00 50 1014.5
20260904210540 95 243 0.9 0.9 0.00 0.00 0.00 49 1014.5
20260904210037 95 213 4.3 7.0 0.00 0.00 0.00 49 1014.5
20260904205537 96 269 4.3 5.2 0.00 0.00 0.00 49 1014.5
20260904205033 94 240 2.6 2.6 0.00 0.00 0.00 54 1014.5
20260904204529 93 211 1.7 2.6 0.00 0.00 0.00 55 1014.5
20260904204025 91 256 0.9 0.9 0.00 0.00 0.00 58 1014.5
20260904203521 90 214 2.6 2.6 0.00 0.00 0.00 60 1014.5
20260904203017 90 254 1.7 2.6 0.00 0.00 0.00 59 1014.8
20260904202513 90 243 1.7 1.7 0.00 0.00 0.00 61 1014.8
20260904202009 90 265 1.7 1.7 0.00 0.00 0.00 61 1014.8
20260904201503 89 252 0.9 0.9 0.00 0.00 0.00 61 1015.2
20260904200959 90 303 2.6 2.6 0.00 0.00 0.00 61 1015.2
20260904200457 89 208 2.6 2.6 0.00 0.00 0.00 64 1015.2
20260904195952 88 176 0.9 0.9 0.00 0.00 0.00 65 1015.2
20260904195451 89 259 0.9 0.9 0.00 0.00 0.00 65 1015.2
20260904194950 88 203 0.9 1.7 0.00 0.00 0.00 66 1015.5
20260904194445 88 252 1.7 1.7 0.00 0.00 0.00 66 1015.2
20260904193940 87 263 1.7 1.7 0.00 0.00 0.00 69 1015.2
20260904193435 87 225 0.9 0.9 0.00 0.00 0.00 71 1015.5
20260904192931 87 230 1.7 1.7 0.00 0.00 0.00 71 1015.2
20260904192426 87 199 1.7 1.7 0.00 0.00 0.00 71 1015.5
20260904191922 86 204 0.9 1.7 0.00 0.00 0.00 71 1015.5
20260904191418 86 250 0.9 1.7 0.00 0.00 0.00 73 1015.5
20260904190915 85 213 0.9 0.9 0.00 0.00 0.00 75 1015.8
20260904190410 85 249 2.6 2.6 0.00 0.00 0.00 75 1015.8
20260904185907 84 233 0.9 1.7 0.00 0.00 0.00 76 1016.2
20260904185402 84 266 0.9 0.9 0.00 0.00 0.00 77 1015.8
20260904184901 83 199 1.7 2.6 0.00 0.00 0.00 78 1015.8
20260904184356 83 236 2.6 2.6 0.00 0.00 0.00 80 1016.2
20260904183851 83 196 1.7 1.7 0.00 0.00 0.00 79 1016.2
20260904183347 83 220 2.6 2.6 0.00 0.00 0.00 80 1016.5
20260904182842 84 266 0.0 0.0 0.00 0.00 0.00 82 1016.2
20260904182337 85 257 0.9 1.7 0.00 0.00 0.00 80 1016.2
20260904181832 86 262 0.0 0.9 0.00 0.00 0.00 76 1016.5
20260904181332 86 199 2.6 2.6 0.00 0.00 0.00 70 1016.2
20260904180827 86 188 0.9 0.9 0.00 0.00 0.00 71 1016.5
20260904180323 86 252 1.7 1.7 0.00 0.00 0.00 72 1016.5
20260904175822 86 235 0.0 0.0 0.00 0.00 0.00 71 1016.9
20260904175320 86 224 1.7 2.6 0.00 0.00 0.00 71 1016.5
20260904174815 86 225 2.6 4.3 0.00 0.00 0.00 71 1016.5
20260904174311 86 230 0.9 0.9 0.00 0.00 0.00 73 1016.9
20260904173807 86 218 0.0 0.0 0.00 0.00 0.00 74 1016.5
20260904173302 86 269 0.0 0.0 0.00 0.00 0.00 75 1016.5
20260904172758 86 205 1.7 1.7 0.00 0.00 0.00 74 1016.5
20260904172257 86 272 0.9 0.9 0.00 0.00 0.00 74 1016.9
20260904171752 86 252 0.0 0.0 0.00 0.00 0.00 75 1016.9
20260904171247 85 224 0.0 0.9 0.00 0.00 0.00 76 1017.2
20260904170744 85 205 2.6 2.6 0.00 0.00 0.00 75 1016.9
20260904170239 85 185 0.9 1.7 0.00 0.00 0.00 75 1016.9
20260904165738 85 243 1.7 1.7 0.00 0.00 0.00 75 1016.9
20260904165233 85 234 1.7 1.7 0.00 0.00 0.00 76 1016.9
20260904164732 85 196 1.7 1.7 0.00 0.00 0.00 75 1017.2
20260904164228 85 237 0.9 0.9 0.00 0.00 0.00 77 1016.9
20260904163724 84 205 2.6 2.6 0.00 0.00 0.00 77 1016.9
20260904163219 84 198 2.6 2.6 0.00 0.00 0.00 77 1016.9
20260904162718 84 230 3.5 5.2 0.00 0.00 0.00 77 1016.9
20260904162213 85 211 2.6 2.6 0.00 0.00 0.00 76 1016.5
20260904161709 85 243 1.7 2.6 0.00 0.00 0.00 76 1016.9
20260904161203 85 194 2.6 5.2 0.00 0.00 0.00 76 1016.5
20260904160700 85 274 2.6 5.2 0.00 0.00 0.00 76 1016.5
20260904160154 85 215 2.6 2.6 0.00 0.00 0.00 76 1016.5
20260904155649 85 187 1.7 1.7 0.00 0.00 0.00 77 1016.9
20260904155149 85 179 2.6 4.3 0.00 0.00 0.00 77 1016.5
20260904154647 85 225 2.6 2.6 0.00 0.00 0.00 76 1016.5
20260904154142 84 186 2.6 2.6 0.00 0.00 0.00 77 1016.9
20260904153637 84 261 1.7 1.7 0.00 0.00 0.00 76 1016.5
20260904153132 84 242 2.6 2.6 0.00 0.00 0.00 76 1016.5
20260904152629 84 220 0.9 1.7 0.00 0.00 0.00 78 1016.5
20260904152124 83 243 1.7 1.7 0.00 0.00 0.00 80 1016.2
20260904151619 84 217 6.1 7.0 0.00 0.00 0.00 80 1016.2
20260904151117 83 208 2.6 4.3 0.00 0.00 0.00 82 1016.2
20260904150613 83 259 1.7 2.6 0.00 0.00 0.00 84 1016.2
20260904150109 83 272 1.7 2.6 0.00 0.00 0.00 84 1016.5
20260904145607 82 215 1.7 2.6 0.00 0.00 0.00 84 1016.2
20260904145102 82 244 0.0 0.0 0.00 0.00 0.00 85 1016.2
20260904144558 82 256 1.7 4.3 0.00 0.00 0.00 86 1016.5
20260904144054 82 262 0.9 0.9 0.00 0.00 0.00 86 1016.5
20260904143549 81 277 1.7 1.7 0.00 0.00 0.00 86 1016.2
20260904143046 81 237 2.6 2.6 0.00 0.00 0.00 87 1016.2
20260904142542 81 253 0.9 0.9 0.00 0.00 0.00 88 1016.2
20260904142037 81 191 1.7 1.7 0.00 0.00 0.00 88 1016.2
20260904141532 81 221 0.0 0.9 0.00 0.00 0.00 89 1016.2
20260904141028 81 248 0.9 1.7 0.00 0.00 0.00 89 1016.2
20260904140528 81 258 1.7 1.7 0.00 0.00 0.00 89 1016.2
20260904140022 81 217 3.5 4.3 0.00 0.00 0.00 89 1016.2
20260904135521 81 243 3.5 5.2 0.00 0.00 0.00 89 1015.8
20260904135018 81 279 2.6 4.3 0.00 0.00 0.00 89 1015.8
20260904134513 81 244 1.7 1.7 0.00 0.00 0.00 89 1016.2
20260904134007 81 216 1.7 2.6 0.00 0.00 0.00 88 1015.8
20260904133501 81 222 0.9 1.7 0.00 0.00 0.00 88 1016.2
20260904132957 81 194 0.9 1.7 0.00 0.00 0.00 88 1016.2
20260904132458 81 264 0.0 0.0 0.00 0.00 0.00 88 1016.2
20260904131952 81 266 0.9 0.9 0.00 0.00 0.00 88 1016.2
20260904131447 80 247 0.0 0.0 0.00 0.00 0.00 89 1016.2
20260904130943 80 287 0.9 1.7 0.00 0.00 0.00 89 1016.2
20260904130442 80 202 1.7 1.7 0.00 0.00 0.00 89 1015.8
20260904125937 80 218 1.7 1.7 0.00 0.00 0.00 89 1015.8
20260904125433 80 249 0.9 1.7 0.00 0.00 0.00 89 1015.8
20260904124932 80 220 0.9 0.9 0.00 0.00 0.00 90 1015.5
20260904124429 80 221 0.9 1.7 0.00 0.00 0.00 90 1015.8
20260904123924 80 242 0.9 0.9 0.00 0.00 0.00 89 1015.8
20260904123424 80 200 0.9 1.7 0.00 0.00 0.00 89 1015.5
20260904122920 80 178 0.9 1.7 0.00 0.00 0.00 89 1015.5
20260904122420 80 239 0.0 0.0 0.00 0.00 0.00 89 1015.5
20260904121914 80 219 0.9 0.9 0.00 0.00 0.00 89 1015.5
20260904121411 80 238 0.9 1.7 0.00 0.00 0.00 89 1015.5
20260904120907 80 224 0.9 0.9 0.00 0.00 0.00 89 1015.5
20260904120403 80 256 0.9 0.9 0.00 0.00 0.00 89 1015.2
20260904115857 80 204 2.6 2.6 0.00 0.00 0.00 89 1015.2
20260904115352 80 239 0.9 0.9 0.00 0.00 0.00 89 1015.2
20260904114847 80 237 0.9 1.7 0.00 0.00 0.00 89 1015.2
20260904114342 80 223 0.9 0.9 0.00 0.00 0.00 88 1015.2
20260904113837 80 227 1.7 1.7 0.00 0.00 0.00 88 1015.2
20260904113336 80 139 2.6 2.6 0.00 0.00 0.00 88 1015.2
20260904112832 80 202 0.9 0.9 0.00 0.00 0.00 88 1015.2
20260904112327 80 130 0.9 1.7 0.00 0.00 0.00 88 1015.2
20260904111822 80 169 3.5 5.2 0.00 0.00 0.00 88 1015.2
20260904111318 80 187 0.9 1.7 0.00 0.00 0.00 87 1015.2
20260904110814 80 181 2.6 4.3 0.00 0.00 0.00 88 1015.2
20260904110313 80 186 2.6 2.6 0.00 0.00 0.00 87 1015.2
20260904105807 80 157 1.7 1.7 0.00 0.00 0.00 87 1015.2
20260904105305 80 186 1.7 1.7 0.00 0.00 0.00 87 1015.2
20260904104757 80 201 1.7 2.6 0.00 0.00 0.00 87 1014.8
20260904104253 80 114 0.9 1.7 0.00 0.00 0.00 87 1014.8
20260904103749 80 139 2.6 4.3 0.00 0.00 0.00 87 1014.8
20260904103243 80 200 0.0 0.0 0.00 0.00 0.00 86 1014.8
20260904102739 80 178 0.9 1.7 0.00 0.00 0.00 86 1015.2
20260904102235 80 205 0.0 0.9 0.00 0.00 0.00 86 1014.8
20260904101731 80 212 0.0 0.9 0.00 0.00 0.00 86 1014.8
20260904101227 80 198 0.0 0.0 0.00 0.00 0.00 85 1014.8
20260904100722 80 245 0.0 0.0 0.00 0.00 0.00 85 1014.8
20260904100219 80 158 1.7 1.7 0.00 0.00 0.00 85 1014.8
20260904095717 80 166 0.9 0.9 0.00 0.00 0.00 85 1014.8
20260904095212 80 162 0.0 0.9 0.00 0.00 0.00 85 1014.5
20260904094707 80 229 0.9 0.9 0.00 0.00 0.00 85 1014.8
20260904094203 80 262 0.9 0.9 0.00 0.00 0.00 85 1014.8
20260904093659 80 222 0.9 1.7 0.00 0.00 0.00 85 1014.5
20260904093158 80 231 0.9 0.9 0.00 0.00 0.00 85 1014.5
20260904092655 81 245 0.0 0.9 0.00 0.00 0.00 85 1014.5
20260904092150 81 245 0.0 0.9 0.00 0.00 0.00 84 1014.5
20260904091647 81 239 0.0 0.0 0.00 0.00 0.00 84 1014.5
20260904091146 81 225 0.9 0.9 0.00 0.00 0.00 84 1014.5
20260904090642 81 196 1.7 1.7 0.00 0.00 0.00 84 1014.8
20260904090137 81 182 1.7 1.7 0.00 0.00 0.00 84 1014.5
20260904085637 81 213 0.9 0.9 0.00 0.00 0.00 84 1014.5
20260904085132 81 234 0.9 0.9 0.00 0.00 0.00 84 1014.5
20260904084627 81 239 0.9 0.9 0.00 0.00 0.00 84 1014.5
20260904084124 81 216 1.7 1.7 0.00 0.00 0.00 84 1014.5
20260904083620 81 237 0.0 0.9 0.00 0.00 0.00 83 1014.5
20260904083115 81 214 0.9 0.9 0.00 0.00 0.00 83 1014.5
20260904082610 81 257 0.0 0.0 0.00 0.00 0.00 83 1014.5
20260904082106 81 236 0.9 0.9 0.00 0.00 0.00 83 1014.5
20260904081601 81 237 1.7 1.7 0.00 0.00 0.00 83 1014.5
20260904081056 81 233 3.5 5.2 0.00 0.00 0.00 83 1014.5
20260904080552 81 201 0.9 0.9 0.00 0.00 0.00 83 1014.5
20260904080048 81 221 1.7 1.7 0.00 0.00 0.00 83 1014.5
20260904075543 82 238 0.9 0.9 0.00 0.00 0.00 82 1014.5
20260904075038 82 198 0.9 0.9 0.00 0.00 0.00 82 1014.5
20260904074537 82 209 0.9 0.9 0.00 0.00 0.00 82 1014.8
20260904074032 82 206 0.9 0.9 0.00 0.00 0.00 82 1014.5
20260904073527 82 213 0.9 1.7 0.00 0.00 0.00 82 1014.5
20260904073023 82 244 0.9 1.7 0.00 0.00 0.00 81 1014.8
20260904072519 82 223 0.9 0.9 0.00 0.00 0.00 81 1014.8
20260904072014 82 185 0.9 1.7 0.00 0.00 0.00 81 1015.2
20260904071509 82 203 3.5 4.3 0.00 0.00 0.00 81 1014.5
20260904071004 82 159 1.7 1.7 0.00 0.00 0.00 81 1014.8
20260904070503 82 183 2.6 2.6 0.00 0.00 0.00 81 1015.2
20260904065957 82 209 1.7 4.3 0.00 0.00 0.00 80 1014.8
20260904065453 82 218 2.6 2.6 0.00 0.00 0.00 80 1014.8
20260904064949 82 211 2.6 4.3 0.00 0.00 0.00 80 1015.2
20260904064445 82 237 0.9 0.9 0.00 0.00 0.00 80 1015.2
20260904063939 82 257 0.9 1.7 0.00 0.00 0.00 80 1015.2
20260904063436 82 223 0.9 0.9 0.00 0.00 0.00 80 1014.8
20260904062930 82 192 0.9 0.9 0.00 0.00 0.00 79 1014.8
20260904062427 82 210 0.9 0.9 0.00 0.00 0.00 79 1014.8
20260904061922 82 108 0.9 1.7 0.00 0.00 0.00 79 1015.2
20260904061419 82 240 1.7 1.7 0.00 0.00 0.00 79 1015.2
20260904060914 82 155 2.6 5.2 0.00 0.00 0.00 79 1014.8
20260904060410 82 233 1.7 1.7 0.00 0.00 0.00 79 1015.2
20260904055905 82 216 1.7 4.3 0.00 0.00 0.00 79 1015.2
20260904055401 82 151 1.7 2.6 0.00 0.00 0.00 79 1014.8
20260904054856 82 132 1.7 1.7 0.00 0.00 0.00 79 1014.8
20260904054352 82 249 2.6 2.6 0.00 0.00 0.00 79 1014.8
20260904053847 82 144 1.7 2.6 0.00 0.00 0.00 79 1015.2
20260904053347 82 198 0.9 1.7 0.00 0.00 0.00 79 1014.8
20260904052843 82 179 1.7 1.7 0.00 0.00 0.00 79 1014.8
20260904052339 82 241 3.5 5.2 0.00 0.00 0.00 79 1014.8
20260904051835 82 223 1.7 1.7 0.00 0.00 0.00 79 1014.8
20260904051331 82 223 2.6 5.2 0.00 0.00 0.00 79 1014.8
20260904050831 82 242 2.6 2.6 0.00 0.00 0.00 79 1014.8
20260904050328 82 225 1.7 1.7 0.00 0.00 0.00 79 1014.8
20260904045822 82 167 2.6 2.6 0.00 0.00 0.00 79 1014.8
20260904045317 82 253 0.0 0.9 0.00 0.00 0.00 79 1015.2
20260904044811 82 216 0.9 1.7 0.00 0.00 0.00 79 1014.8
20260904044308 82 218 1.7 4.3 0.00 0.00 0.00 79 1014.8
20260904043804 82 185 0.9 0.9 0.00 0.00 0.00 79 1014.8
20260904043300 82 146 1.7 2.6 0.00 0.00 0.00 79 1014.8
20260904042755 82 173 0.9 1.7 0.00 0.00 0.00 79 1014.5
20260904042251 82 206 2.6 2.6 0.00 0.00 0.00 79 1014.8
20260904041751 82 149 1.7 1.7 0.00 0.00 0.00 79 1014.8
20260904041247 82 197 1.7 1.7 0.00 0.00 0.00 79 1014.5
20260904040743 82 102 0.9 1.7 0.00 0.00 0.00 79 1014.8
20260904040238 81 149 2.6 2.6 0.00 0.00 0.00 79 1014.8
20260904035734 82 209 1.7 1.7 0.00 0.00 0.00 79 1014.5
20260904035230 82 149 2.6 2.6 0.00 0.00 0.00 78 1014.8
20260904034728 82 199 1.7 2.6 0.00 0.00 0.00 78 1014.8
20260904034224 81 252 1.7 2.6 0.00 0.00 0.00 78 1014.5
20260904033720 82 131 5.2 6.1 0.00 0.00 0.00 78 1014.8
20260904033217 82 147 2.6 2.6 0.00 0.00 0.00 78 1014.8
20260904032713 82 186 4.3 5.2 0.00 0.00 0.00 78 1014.5
20260904032212 82 104 1.7 2.6 0.00 0.00 0.00 78 1014.5
20260904031712 82 147 1.7 1.7 0.00 0.00 0.00 78 1014.5
20260904031207 82 175 2.6 4.3 0.00 0.00 0.00 77 1014.5
20260904030703 82 139 5.2 6.1 0.00 0.00 0.00 77 1014.5
20260904030157 82 169 3.5 6.1 0.00 0.00 0.00 77 1014.5
20260904025654 82 145 2.6 5.2 0.00 0.00 0.00 77 1014.5
20260904025149 82 117 1.7 2.6 0.00 0.00 0.00 76 1014.1